Location: Feura Bush
(42.5779°N, 73.8787°W)
Time: 06:06:35
(UTC+00:00)

UNISAT 6 - Pass Details

Date: 14 December 2024
Orbit: 584 x 653 km, 97.7° (Epoch: 18 January)

Event Time Altitude Azimuth Distance (km) Brightness Sun altitude
Rises 22:21:20 0° 358° (N) 2,837 ? -10.4°
Reaches altitude 10° 22:23:51 10° 343° (NNW) 1,940 ? -10.9°
Maximum altitude 22:27:05 22° 293° (WNW) 1,328 ? -11.4°
Drops below altitude 10° 22:30:21 10° 242° (WSW) 1,957 ? -12.0°
Sets 22:32:55 0° 227° (SW) 2,870 ? -12.4°
